best website stats

Jackpot

Texas Poker Multi Jackpot System

Kini Telah hadir Jackpot SUPER ROYAL FLUSH

Kini Telah hadir Jackpot 2000 (khusus table VIP keatas).

Ikutilah global jackpot yang tersedia di system kami, dengan system jackpot terbaru dan pertama di indonesia, anda dapat membeli jackpot dengan harga 100 rupiah saja dan menangkan hadiahnya hingga puluhan juta rupiah.

Jackpot bukanlah suatu keharusan untuk dibeli, namun kami memberikan suatu fitur tambahan untuk member tercinta dari www.audipoker.com.

Terdapat tiga pilihan harga jackpot yang bisa anda beli yaitu :100,500,1000 dan 2000(khusus table VIP Keatas) rupiah.

Hadiah dari Multi jackpot system www.audipoker.com

  1. full house x 10 harga jackpot yang anda beli.
      (contoh:anda membeli 1000 maka:1000 X10 = 10.000)
  2. four of kind x 250 harga jackpot yang anda beli
      (contoh:anda membeli 1000 maka:1000 X250 = 250.000)
  3. Straight flush x 1200
      (contoh:anda membeli 1000 maka:1000 X1200 = 1.200.000)
  4. Royal flush x 10000 harga jackpot yang anda beli
      (contoh:anda membeli 1000 maka:1000 X10000 = 10.000.000)
  5. SUPER ROYAL FLUSH x 30000 harga jackpot yang anda beli
      (contoh:anda membeli 1000 maka:1000 X30000 = 30.000.000)

Kondisi kartu

  1. full house adalah kondisi kartu dimana kartu anda dan kartu tengah dengan total 7 kartu bisa mendapatkan nilai 5 kartu dengan kombinasi 1 tris(three of kind) dan 1 pair, contoh 3 kartu 10 dan 2 kartu 5
  2. Four of kind adalah kondisi kartu dimana kartu anda dan kartu tengah dengan total 7 kartu bisa mendapatkan nilai 5 kartu dengan kombinasi 4 kartu yang sama jumlah dan 1 kartu apapun juga contoh anda mendapatkan 4 buah kartu angka 3 dan 1 kartu apapun.
  3. Staright flush adalah kondisi kartu dimana kartu anda dan kartu tengah dengan total 7 kartu bisa mendapatkan nilai 5 kartu dengan kombinasi seri / staright dengan kembang yang sama contoh : urutan kartu dari angka 5, 6, 7, 8 , 9 10 dengan kembang yg sama misalnya as hati
  4. Royal flush adalah kondisi kartu dimana kartu anda dan kartu tengah dengan total 7 kartu bisa mendapatkan nilai 5 kartu dengan kombinasi seri / staright dengan kembang yang sama tetapi kartu tersebut haruslah dimulai dari 10. contoh 10, Queen, Jack, King dan aces dengan kembang yang sama
  5. Super Royal flush adalah kondisi kartu dimana Kedua kartu anda digabung dengan 3 kartu pertama meja haruslah royal flush. contoh kartu anda 10,Queen kembang sama dan 3 kartu pertama meja adalah Jack, King dan aces dengan kembang yang sama

Demikian adalah penjelasan dari Multi Jackpot www.audipoker.com terima kasih dan selamat bermain salam hoki dari kami

Texas Poker Jackpot Winner

TOP SUPER ROYAL FLUSH
No.TanggalNamaPriceWin
118/10 18:04SUGEH16Super Royal flush15,000,000
218/10 15:21TEKAD13Super Royal flush3,000,000
318/10 15:05DODY415263Super Royal flush15,000,000
418/10 09:55BOND1107Super Royal flush30,000,000
518/10 04:31JONI2806Super Royal flush60,000,000
TOP ROYAL FLUSH
No.TanggalNamaPriceWin
118/10 19:55A1985Royal flush1,000,000
218/10 19:43MAN1993XRoyal flush1,000,000
318/10 19:26N0V1CRoyal flush5,000,000
418/10 19:00VANDHODO77Royal flush5,000,000
518/10 18:51NJEROANRoyal flush5,000,000
TOP STRAIGHT FLUSH
No.TanggalNamaPriceWin
118/10 20:02JPINBOS09Straight Flush120,000
218/10 20:02POEKSSSStraight Flush240,000
318/10 20:01TIT05809Straight Flush1,200,000
418/10 19:59INDOHOMEStraight Flush1,200,000
518/10 19:59H1GARASStraight Flush600,000
LATEST JACKPOT
No.TanggalNamaPriceWin
118/10 20:02M4G4S46Full House2,000
218/10 20:02ARAA12Full House2,000
318/10 20:02L3ANDER31Full House10,000
418/10 20:02ASAHAN37Full House2,000
518/10 20:02SETANN123Full House2,000
618/10 20:02TAIKANFull House1,000
718/10 20:02AADRACUT16Full House2,000
818/10 20:02ADUY90Full House2,000
918/10 20:02JPINBOS09Straight Flush120,000
1018/10 20:02DIDILKFull House1,000
1118/10 20:02DOMPETHOKIFour Of A Kind50,000
1218/10 20:02JAGGO69Full House5,000
1318/10 20:02CHRYSTFull House10,000
1418/10 20:02PAHLEVI96Full House2,000
1518/10 20:02ERWINSOJA9Full House1,000
1618/10 20:02JAGO420Full House10,000
1718/10 20:02CCW3C1JLWRFull House5,000
1818/10 20:02THEROCK979Full House1,000
1918/10 20:02SOBIESKIFour Of A Kind25,000
2018/10 20:02OGA053O8QCFull House1,000
2118/10 20:02LENISWEETFull House5,000
2218/10 20:02SINGO715Full House2,000
2318/10 20:02WINS19846Full House1,000
2418/10 20:02POEKSSSStraight Flush240,000
2518/10 20:02QUJING_Full House5,000
2618/10 20:02M0D4RS1AFull House2,000
2718/10 20:02MULTI88739Full House2,000
2818/10 20:02BAZTENFull House10,000
2918/10 20:02TEMP078Full House1,000
3018/10 20:02TT988DIKI07Full House1,000
3118/10 20:02CHRIS2005Full House2,000
3218/10 20:02AJII_1011Full House1,000
3318/10 20:02LEXIS39Full House2,000
3418/10 20:02JAGUAR_55Four Of A Kind125,000
3518/10 20:02RI3NDAFull House1,000
3618/10 20:02SHINYO06Full House1,000
3718/10 20:02P13OKMKC4LFull House5,000
3818/10 20:02YANA999999Full House5,000
3918/10 20:02LIS_KARFull House500
4018/10 20:01GORILLA303Full House20,000
4118/10 20:01EXTASI12Full House2,000
4218/10 20:01B8071DD4Four Of A Kind50,000
4318/10 20:01RSUDHAMFull House2,000
4418/10 20:01G3D483KFull House5,000
4518/10 20:01G0MTJY7EF5Full House2,000
4618/10 20:01KRIS1988Full House5,000
4718/10 20:01GDYJPQWUWQFull House1,000
4818/10 20:01ASAHAN37Full House2,000
4918/10 20:01JADAILAHFull House10,000
5018/10 20:01JAMBANBELIFull House10,000

Domino Multi Jackpot System

Ikutilah global jackpot yang tersedia di system kami, dengan system jackpot terbaru dan pertama di indonesia, anda dapat membeli jackpot dengan harga 100 rupiah saja dan menangkan hadiahnya hingga puluhan juta rupiah.

Jackpot bukanlah suatu keharusan untuk dibeli, namun kami memberikan suatu fitur tambahan untuk member tercinta dari www.audipoker.com.

Terdapat tiga pilihan harga jackpot yang bisa anda beli yaitu :100,500 dan 1000 rupiah.

Hadiah dari Multi jackpot system www.audipoker.com

  1. Murni Kecil x 50 harga jackpot yang anda beli.
      (contoh:anda membeli 1000 maka:1000 X 50 = 50.000)
  2. Murni Besar x 50 harga jackpot yang anda beli
      (contoh:anda membeli 1000 maka:1000 X 50 = 50.000)
  3. BALAK x 100 harga jackpot yang anda beli
      (contoh:anda membeli 1000 maka:1000 X 100 = 100.000)
  4. ENAM DEWA x 6666 harga jackpot yang anda beli
      (contoh:anda membeli 1000 maka:1000 X 6666 = 6.666.000)

Demikian adalah penjelasan dari Multi Jackpot www.audipoker.com terima kasih dan selamat bermain salam hoki dari kami

Domino Jackpot Winner

TOP ENAM DEWA
No.TanggalNamaPriceWin
118/10 19:49BLE77Smurni enam666,600
218/10 19:30SETYAWAmurni enam3,333,000
318/10 17:44KUBRA321murni enam6,666,000
418/10 17:11JAWA44murni enam6,666,000
518/10 15:58FN7N71L4P3murni enam3,333,000
TOP BALAK
No.TanggalNamaPriceWin
118/10 20:02AMUUNNNbalak100,000
218/10 19:59GULSERENbalak100,000
318/10 19:59ADIETCAY89balak100,000
418/10 19:57PERKARAbalak100,000
518/10 19:57RIIDZ7balak50,000
LATEST JACKPOT
No.TanggalNamaPriceWin
118/10 20:02ZHOLLmurni besar50,000
218/10 20:02AMUUNNNbalak100,000
318/10 20:01IBMFEZRV21murni besar50,000
418/10 20:01OMSONO12murni besar5,000
518/10 19:59P4TRICKmurni besar5,000
618/10 19:59RAUAHKABEHmurni kecil25,000
718/10 19:59GULSERENbalak100,000
818/10 19:59ADIETCAY89balak100,000
918/10 19:58FE75F5F3murni besar5,000
1018/10 19:57PERKARAbalak100,000
1118/10 19:57RIIDZ7balak50,000
1218/10 19:57KMAMImurni besar5,000
1318/10 19:56NALDO987murni kecil50,000
1418/10 19:56HIO164balak100,000
1518/10 19:56BAGOYANG66murni kecil5,000
1618/10 19:55RDRIAN99murni kecil50,000
1718/10 19:55ALYANDO23murni kecil25,000
1818/10 19:55M1ST3R_Xmurni kecil25,000
1918/10 19:55QQ_GOBANGbalak100,000
2018/10 19:54SATU238murni kecil5,000
2118/10 19:54O012345balak100,000
2218/10 19:53YOOK17murni besar50,000
2318/10 19:53TYTYT989balak50,000
2418/10 19:53BRAGAYAKUZmurni kecil50,000
2518/10 19:53PLAY_338_murni kecil5,000
2618/10 19:52RAVINmurni besar50,000
2718/10 19:52W4ONE9murni besar25,000
2818/10 19:51D4C3ZX2C2Kmurni kecil50,000
2918/10 19:51SCH4TZY99murni kecil25,000
3018/10 19:51TAJABAE12murni kecil5,000
3118/10 19:51RIZAL1986balak100,000
3218/10 19:50HANDTWObalak100,000
3318/10 19:49BLE77Smurni enam666,600
3418/10 19:49EENG74murni kecil25,000
3518/10 19:49DWLADIN3BObalak100,000
3618/10 19:49IPOCE200balak10,000
3718/10 19:49DECHAN22murni besar25,000
3818/10 19:49BAGOYANG66murni besar5,000
3918/10 19:48SOUK99balak100,000
4018/10 19:48OMSONO12murni besar5,000
4118/10 19:48RASKAL90murni kecil50,000
4218/10 19:47WIZNHU90murni kecil25,000
4318/10 19:47LIBERTO99murni besar50,000
4418/10 19:46COCOTE123murni besar50,000
4518/10 19:44PRIBAD1murni kecil5,000
4618/10 19:44M3EHJOJKXWmurni kecil25,000
4718/10 19:43WAKJANI00murni besar5,000
4818/10 19:41XAJHOKImurni kecil50,000
4918/10 19:41BOZIWIK7murni kecil50,000
5018/10 19:41HF6BNJMDTCmurni kecil50,000

Ceme Multi Jackpot System

Jackpot dilihat dari gabungan kartu pemain dengan kartu bandar. Bandar harus membeli jackpot sebanyak jumlah player yang sedang duduk. Sebagai contoh bila terdapat 3 pemain duduk bermain, dan bandar memutuskan untuk membeli jackpot Rp 1.000, maka pada periode tersebut bandar akan membeli jackpot sebanyak 3xRp1.000 = Rp3.000.

Jackpot bukanlah suatu keharusan untuk dibeli, namun kami memberikan suatu fitur tambahan untuk member tercinta dari www.audipoker.com.

Terdapat tiga pilihan harga jackpot yang bisa anda beli yaitu :100,500 dan 1000 rupiah.

Hadiah dari Multi jackpot system www.audipoker.com

  1. Murni Kecil x 50 harga jackpot yang anda beli.
      (contoh:anda membeli 1000 maka:1000 X 50 = 50.000)
  2. Murni Besar x 50 harga jackpot yang anda beli
      (contoh:anda membeli 1000 maka:1000 X 50 = 50.000)
  3. BALAK x 200 harga jackpot yang anda beli
      (contoh:anda membeli 1000 maka:1000 X 200 = 200.000)
  4. ENAM DEWA x 6666 harga jackpot yang anda beli
      (contoh:anda membeli 1000 maka:1000 X 6666 = 6.666.000)

Demikian adalah penjelasan dari Multi Jackpot www.audipoker.com terima kasih dan selamat bermain salam hoki dari kami

Ceme Jackpot Winner

TOP ENAM DEWA
No.TanggalNamaPriceWin
118/10 19:48AAAAAPAP9murni enam3,333,000
218/10 19:29MADURA0707murni enam6,666,000
318/10 19:24K9DWOURJ8Jmurni enam3,333,000
418/10 19:24DECURmurni enam6,666,000
518/10 19:13PINTAR128murni enam3,333,000
TOP BALAK
No.TanggalNamaPriceWin
118/10 20:02LEAG414balak100,000
218/10 20:02DAGGER77balak100,000
318/10 20:01ASEPQIU9balak200,000
418/10 20:00DODORES1balak200,000
518/10 20:00JAKPOT0904balak20,000
LATEST JACKPOT
No.TanggalNamaPriceWin
118/10 20:02DINO2121murni besar50,000
218/10 20:02LEAG414balak100,000
318/10 20:02MRDARMO1murni kecil50,000
418/10 20:02DAGGER77murni kecil25,000
518/10 20:02DAGGER77balak100,000
618/10 20:02VHITINK2murni kecil50,000
718/10 20:02AJATSATRIAmurni kecil5,000
818/10 20:01MAINN888murni kecil50,000
918/10 20:01DHITDHITAmurni kecil50,000
1018/10 20:01JOOGYXP3HPmurni kecil50,000
1118/10 20:01JOOGYXP3HPmurni kecil50,000
1218/10 20:01BASONG091murni kecil5,000
1318/10 20:01ASEPQIU9balak200,000
1418/10 20:01NUGRAHA06murni besar5,000
1518/10 20:01BG2156HNmurni kecil25,000
1618/10 20:01SUGP6G59UEmurni kecil5,000
1718/10 20:01DANU454murni kecil50,000
1818/10 20:01MRDARMO1murni kecil50,000
1918/10 20:01JIOL41murni kecil5,000
2018/10 20:00DODORES1balak200,000
2118/10 20:00SIGON123murni besar50,000
2218/10 20:00CEKIHC0Ymurni besar50,000
2318/10 20:00VOLVOTmurni besar50,000
2418/10 20:00JAKPOT0904balak20,000
2518/10 20:00MONALISA46murni kecil5,000
2618/10 20:00FD0D6592murni besar50,000
2718/10 20:00REXFORDmurni besar5,000
2818/10 20:00DD1060PLmurni besar50,000
2918/10 19:59ROJALILImurni kecil25,000
3018/10 19:59ROJALILImurni kecil25,000
3118/10 19:59AAAAAPAP9murni besar25,000
3218/10 19:59W99POKERmurni besar50,000
3318/10 19:59KOKOMAJUmurni kecil50,000
3418/10 19:59KOKOMAJUmurni kecil50,000
3518/10 19:59ALIYUSUF97murni kecil25,000
3618/10 19:59MAMET1991murni kecil50,000
3718/10 19:59KEDOT86murni besar50,000
3818/10 19:59RUDIAN83murni besar50,000
3918/10 19:59SAIKKKKKmurni besar50,000
4018/10 19:59ABI74murni besar50,000
4118/10 19:59MANDIRIBANmurni kecil50,000
4218/10 19:58CREW14murni kecil25,000
4318/10 19:58BENTENG234murni kecil5,000
4418/10 19:58MCGANSmurni kecil5,000
4518/10 19:58DINO2121murni kecil50,000
4618/10 19:58BRYAN_999murni kecil5,000
4718/10 19:58DD4YMLDImurni besar5,000
4818/10 19:58TAPP87murni besar25,000
4918/10 19:58MUGHNI80murni besar50,000
5018/10 19:58LEBONG9494balak200,000